Location: La B�doule
(43.2468°N, 5.5934°E)
Time: 21:22:21
(UTC+00:00)

STARLINK-1326 - Pass Details

Date: 07 June 2020
Orbit: 379 x 380 km, 53.0° (Epoch: 04 July)

Event Time Altitude Azimuth Distance (km) Brightness Sun altitude
Rises 03:01:40 0° 306° (NW) 2,255 6.6 -8.9°
Reaches altitude 10° 03:03:43 10° 309° (NW) 1,399 5.6 -8.6°
Maximum altitude 03:06:50 69° 34° (NNE) 411 3.2 -8.2°
Drops below altitude 10° 03:09:56 10° 118° (ESE) 1,392 6.0 -7.8°
Sets 03:11:59 0° 121° (ESE) 2,241 7.0 -7.5°
